sat.trackr.live / text

‹ back to catalog

STARLINK-4102

NORAD 53143 · 2022-083M

PAYLOAD ACTIVE UNKNOWN

§ Identity

Operator
Country
US
Launch date
2022-07-17
Launch site
AFETR
Launch vehicle
Mass (kg)
RCS (m²)

Purposes: comms

External: N2YO · Heavens-Above · Gunter

§ Orbital elements

Epoch: 2026-09-20T04:00:03.000096Z

Period
93.38 min
Inclination
53.1598°
Eccentricity
0.0001145
Mean motion
15.42039989 rev/d
Perigee alt
439.3 km
Apogee alt
440.9 km
Semi-major
6,818.2 km
B*
3.2509e-3
RAAN
11.3284°
Arg perigee
89.9972°
Mean anomaly
150.6409°
Rev number
589

§ Raw data

STARLINK-41021 53143U 22083M   26263.16670139  .00143149  00000+0  32509-2 0  99952 53143  53.1598  11.3284 0001145  89.9972 150.6409 15.42039989  5890

JSON: /api/v1/satellites/53143 · /tle

For live sub-satellite position, see the globe view (requires WebGL).

§ Visibility from observer

Set your observer location to see the next 7 days of passes ≥ 10°. The values pass through the URL so the page stays shareable.

No JS? Fill the form by hand. The geolocation button needs JavaScript.